• In Germany
  • List of Countries
  • For 7 days
  • Water Temperature
  • Satellite Maps
  • Weather Map
  • Weather Widgets
  • user-avatar
    Login

    Hourly Weather Bobo-Dioulasso

    Today, 24 October, Wednesday

    Time Temperature Precipitation Wind Pressure Humidity
    00:00 +29°C° 0 mm 1 mps 722 mmHg 35%
    01:00 +28°C° 0 mm 1 mps 722 mmHg 37%
    02:00 +28°C° 0 mm 1 mps 722 mmHg 38%
    03:00 +27°C° 0 mm 1 mps 721 mmHg 40%
    04:00 +27°C° 0 mm 1 mps 722 mmHg 42%
    05:00 +26°C° 0 mm 1 mps 722 mmHg 45%
    06:00 +26°C° 0 mm 1 mps 722 mmHg 47%
    07:00 +28°C° 0 mm 1 mps 722 mmHg 45%
    08:00 +30°C° 0 mm 2 mps 723 mmHg 44%
    09:00 +32°C° 0 mm 2 mps 723 mmHg 42%
    10:00 +35°C° 0 mm 2 mps 723 mmHg 37%
    11:00 +37°C° 0 mm 1 mps 723 mmHg 31%
    12:00 +40°C° 0 mm 1 mps 723 mmHg 25%
    13:00 +40°C° 0 mm 1 mps 722 mmHg 23%
    14:00 +41°C° 0 mm 2 mps 721 mmHg 21%
    15:00 +41°C° 0 mm 2 mps 721 mmHg 19%
    16:00 +39°C° 0 mm 2 mps 721 mmHg 22%
    17:00 +36°C° 0 mm 1 mps 720 mmHg 25%
    18:00 +34°C° 0 mm 1 mps 720 mmHg 28%
    19:00 +33°C° 0 mm 1 mps 721 mmHg 31%
    20:00 +32°C° 0 mm 1 mps 721 mmHg 33%
    21:00 +31°C° 0 mm 1 mps 722 mmHg 35%
    22:00 +31°C° 0 mm 1 mps 722 mmHg 37%
    23:00 +30°C° 0 mm 1 mps 722 mmHg 40%

    Tomorrow, 25 October, Thursday

    Time Temperature Precipitation Wind Pressure Humidity
    00:00 +29°C° 0 mm 1 mps 722 mmHg 42%
    01:00 +29°C° 0 mm 1 mps 721 mmHg 45%
    02:00 +28°C° 0 mm 2 mps 721 mmHg 47%
    03:00 +28°C° 0 mm 2 mps 720 mmHg 49%
    04:00 +27°C° 0 mm 2 mps 720 mmHg 53%
    05:00 +27°C° 0 mm 2 mps 721 mmHg 56%
    06:00 +27°C° 0 mm 3 mps 721 mmHg 59%
    07:00 +28°C° 0 mm 3 mps 721 mmHg 57%
    08:00 +30°C° 0 mm 3 mps 722 mmHg 56%
    09:00 +33°C° 0 mm 4 mps 723 mmHg 54%
    10:00 +35°C° 0 mm 3 mps 723 mmHg 47%
    11:00 +37°C° 0 mm 3 mps 722 mmHg 41%
    12:00 +39°C° 0 mm 3 mps 722 mmHg 34%
    13:00 +39°C° 0 mm 2 mps 722 mmHg 31%
    14:00 +40°C° 0 mm 2 mps 721 mmHg 28%
    15:00 +40°C° 0 mm 1 mps 720 mmHg 25%
    16:00 +39°C° 0 mm 1 mps 720 mmHg 28%
    17:00 +36°C° 0 mm 1 mps 720 mmHg 31%
    18:00 +34°C° 0 mm 1 mps 720 mmHg 34%
    19:00 +34°C° 0 mm 1 mps 721 mmHg 35%
    20:00 +33°C° 0 mm 1 mps 721 mmHg 37%
    21:00 +32°C° 0 mm 1 mps 722 mmHg 38%
    22:00 +32°C° 0.3 mm 1 mps 722 mmHg 41%
    23:00 +31°C° 0.3 mm 1 mps 722 mmHg 45%

    Day after tomorrow, 26 October, Friday

    Time Temperature Precipitation Wind Pressure Humidity
    00:00 +31°C° 0.3 mm 2 mps 722 mmHg 48%
    01:00 +30°C° 0.2 mm 2 mps 721 mmHg 51%
    02:00 +29°C° 0.2 mm 2 mps 721 mmHg 54%
    03:00 +29°C° 0.2 mm 2 mps 720 mmHg 58%
    04:00 +28°C° 0 mm 2 mps 721 mmHg 62%
    05:00 +28°C° 0 mm 3 mps 721 mmHg 65%
    06:00 +27°C° 0 mm 3 mps 721 mmHg 69%
    07:00 +28°C° 0 mm 3 mps 722 mmHg 68%
    08:00 +29°C° 0 mm 3 mps 722 mmHg 66%
    09:00 +30°C° 0 mm 4 mps 723 mmHg 65%
    10:00 +33°C° 0 mm 3 mps 723 mmHg 57%
    11:00 +35°C° 0 mm 3 mps 722 mmHg 49%
    12:00 +37°C° 0 mm 2 mps 722 mmHg 41%
    13:00 +38°C° 0 mm 2 mps 721 mmHg 37%
    14:00 +39°C° 0 mm 1 mps 721 mmHg 33%
    15:00 +41°C° 0 mm 1 mps 720 mmHg 29%
    16:00 +39°C° 0 mm 1 mps 720 mmHg 32%
    17:00 +36°C° 0 mm 1 mps 720 mmHg 35%
    18:00 +34°C° 0 mm 1 mps 720 mmHg 37%
    19:00 +33°C° 0.2 mm 1 mps 721 mmHg 42%
    20:00 +32°C° 0.2 mm 1 mps 721 mmHg 46%
    21:00 +31°C° 0.2 mm 1 mps 722 mmHg 51%
    22:00 +30°C° 0.9 mm 2 mps 722 mmHg 57%
    23:00 +30°C° 0.9 mm 3 mps 722 mmHg 64%

    27 October, Saturday

    Time Temperature Precipitation Wind Pressure Humidity
    00:00 +29°C° 0.9 mm 3 mps 722 mmHg 70%
    01:00 +28°C° 0.2 mm 3 mps 722 mmHg 71%
    02:00 +28°C° 0.2 mm 3 mps 721 mmHg 71%
    03:00 +28°C° 0.2 mm 3 mps 721 mmHg 72%
    04:00 +27°C° 0.1 mm 3 mps 721 mmHg 72%
    05:00 +27°C° 0.1 mm 3 mps 722 mmHg 72%
    06:00 +27°C° 0.1 mm 2 mps 722 mmHg 72%
    07:00 +28°C° 0 mm 3 mps 723 mmHg 66%
    08:00 +30°C° 0 mm 3 mps 723 mmHg 59%
    09:00 +31°C° 0 mm 3 mps 724 mmHg 53%
    10:00 +34°C° 0 mm 3 mps 724 mmHg 49%
    11:00 +35°C° 0 mm 3 mps 723 mmHg 44%
    12:00 +37°C° 0 mm 3 mps 723 mmHg 40%
    13:00 +37°C° 0 mm 3 mps 722 mmHg 39%
    14:00 +37°C° 0 mm 3 mps 722 mmHg 39%
    15:00 +37°C° 0 mm 2 mps 721 mmHg 38%
    16:00 +36°C° 0 mm 2 mps 721 mmHg 42%
    17:00 +35°C° 0 mm 2 mps 721 mmHg 46%
    18:00 +32°C° 0 mm 2 mps 721 mmHg 50%
    19:00 +32°C° 0 mm 2 mps 722 mmHg 53%
    20:00 +31°C° 0 mm 2 mps 722 mmHg 57%
    21:00 +30°C° 0 mm 2 mps 723 mmHg 60%
    22:00 +30°C° 0 mm 2 mps 723 mmHg 63%
    23:00 +29°C° 0 mm 2 mps 723 mmHg 65%

    28 October, Sunday

    Time Temperature Precipitation Wind Pressure Humidity
    00:00 +29°C° 0 mm 2 mps 722 mmHg 68%
    01:00 +28°C° 0.4 mm 2 mps 722 mmHg 72%
    02:00 +27°C° 0.4 mm 2 mps 722 mmHg 75%
    03:00 +27°C° 0.4 mm 2 mps 721 mmHg 79%
    04:00 +27°C° 0.1 mm 2 mps 722 mmHg 80%
    05:00 +26°C° 0.1 mm 2 mps 722 mmHg 81%
    06:00 +26°C° 0.1 mm 2 mps 722 mmHg 82%
    07:00 +28°C° 0 mm 2 mps 723 mmHg 76%
    08:00 +29°C° 0 mm 2 mps 723 mmHg 70%
    09:00 +31°C° 0 mm 3 mps 724 mmHg 64%
    10:00 +34°C° 0 mm 2 mps 724 mmHg 56%
    11:00 +36°C° 0 mm 1 mps 723 mmHg 47%
    12:00 +39°C° 0 mm 1 mps 723 mmHg 39%
    13:00 +37°C° 0 mm 1 mps 722 mmHg 38%
    14:00 +37°C° 0 mm 1 mps 721 mmHg 38%
    15:00 +36°C° 0 mm 1 mps 721 mmHg 37%
    16:00 +35°C° 0 mm 1 mps 721 mmHg 39%
    17:00 +35°C° 0 mm 1 mps 721 mmHg 42%
    18:00 +34°C° 0 mm 1 mps 721 mmHg 44%
    19:00 +33°C° 0.1 mm 1 mps 722 mmHg 47%
    20:00 +32°C° 0.1 mm 1 mps 722 mmHg 50%
    21:00 +31°C° 0.1 mm 1 mps 722 mmHg 53%
    22:00 +30°C° 1.1 mm 1 mps 722 mmHg 59%
    23:00 +29°C° 1.1 mm 1 mps 722 mmHg 65%

    29 October, Monday

    Time Temperature Precipitation Wind Pressure Humidity
    00:00 +28°C° 1.1 mm 1 mps 722 mmHg 71%
    01:00 +28°C° 0.4 mm 1 mps 722 mmHg 74%
    02:00 +27°C° 0.4 mm 2 mps 722 mmHg 77%
    03:00 +27°C° 0.4 mm 2 mps 721 mmHg 81%
    04:00 +26°C° 0 mm 2 mps 722 mmHg 82%
    05:00 +26°C° 0 mm 2 mps 722 mmHg 83%
    06:00 +26°C° 0 mm 1 mps 722 mmHg 84%
    07:00 +28°C° 0 mm 2 mps 723 mmHg 78%
    08:00 +29°C° 0 mm 2 mps 723 mmHg 72%
    09:00 +30°C° 0 mm 2 mps 724 mmHg 66%
    10:00 +32°C° 0 mm 2 mps 723 mmHg 58%
    11:00 +35°C° 0 mm 2 mps 723 mmHg 51%
    12:00 +37°C° 0 mm 2 mps 722 mmHg 43%
    13:00 +36°C° 0 mm 1 mps 722 mmHg 40%
    14:00 +37°C° 0 mm 1 mps 721 mmHg 38%
    15:00 +39°C° 0 mm 1 mps 720 mmHg 35%
    16:00 +36°C° 0 mm 1 mps 720 mmHg 38%
    17:00 +35°C° 0 mm 1 mps 721 mmHg 41%
    18:00 +33°C° 0 mm 1 mps 721 mmHg 44%
    19:00 +33°C° 0 mm 1 mps 721 mmHg 47%
    20:00 +32°C° 0 mm 1 mps 722 mmHg 50%
    21:00 +31°C° 0 mm 2 mps 722 mmHg 52%
    22:00 +31°C° 0 mm 2 mps 722 mmHg 54%
    23:00 +30°C° 0 mm 2 mps 722 mmHg 56%

    30 October, Tuesday

    Time Temperature Precipitation Wind Pressure Humidity
    00:00 +30°C° 0 mm 2 mps 722 mmHg 58%
    01:00 +29°C° 1 mm 2 mps 721 mmHg 63%
    02:00 +28°C° 1 mm 1 mps 721 mmHg 67%
    03:00 +28°C° 1 mm 1 mps 721 mmHg 71%
    04:00 +27°C° 2.9 mm 1 mps 721 mmHg 76%
    05:00 +26°C° 2.9 mm 2 mps 722 mmHg 81%
    06:00 +26°C° 2.9 mm 2 mps 722 mmHg 86%
    07:00 +27°C° 0 mm 2 mps 722 mmHg 82%
    08:00 +28°C° 0 mm 2 mps 723 mmHg 78%
    09:00 +29°C° 0 mm 1 mps 723 mmHg 74%
    10:00 +31°C° 0.1 mm 1 mps 723 mmHg 65%
    11:00 +33°C° 0.1 mm 1 mps 722 mmHg 56%
    12:00 +35°C° 0.1 mm 1 mps 722 mmHg 47%
    13:00 +35°C° 0 mm 1 mps 721 mmHg 45%
    14:00 +36°C° 0 mm 1 mps 721 mmHg 42%
    15:00 +36°C° 0 mm 1 mps 720 mmHg 40%
    16:00 +35°C° 0 mm 1 mps 720 mmHg 42%
    17:00 +34°C° 0 mm 1 mps 720 mmHg 45%
    18:00 +33°C° 0 mm 1 mps 720 mmHg 48%
    19:00 +32°C° 0 mm 1 mps 720 mmHg 51%
    20:00 +31°C° 0 mm 1 mps 721 mmHg 53%
    21:00 +31°C° 0 mm 2 mps 721 mmHg 56%
    22:00 +30°C° 0.1 mm 2 mps 721 mmHg 60%
    23:00 +29°C° 0.1 mm 2 mps 721 mmHg 65%
    Show more